Waarnemingen

Advertentie
Mijn weer
Katterjakk A, Zweden (2019): temperatuur & dauwpunt: 17.11.2017 12:00:00 - 23.11.2017 12:00:00 (CET)Katterjakk A, Zweden (2019): windsnelheid & windstoten: 17.11.2017 12:00:00 - 23.11.2017 12:00:00 (CET)Katterjakk A, Zweden (2019): windrichting: 17.11.2017 12:00:00 - 23.11.2017 12:00:00 (CET)Katterjakk A, Zweden (2019): luchtdruk: 17.11.2017 12:00:00 - 23.11.2017 12:00:00 (CET)Katterjakk A, Zweden (2019): zicht: 17.11.2017 12:00:00 - 23.11.2017 12:00:00 (CET)Katterjakk A, Zweden (2019): neerslag: 17.11.2017 12:00:00 - 23.11.2017 12:00:00 (CET)
Datum & Tijd tt [°C] td [°C] ff [km/u] ff [kn] fx [km/u] fx [kn] dd ppp [hPa] vv [km] rr [mm]
23.11.2017 12:00:00 - - - - - - - - - -
23.11.2017 11:00:00 -10,8 -12,4 - - - - - 1003,4 0,6 0,1
23.11.2017 10:00:00 -10,8 -12,5 - - - - - 1004,4 0,5 0,3
23.11.2017 09:00:00 -10,9 -12,5 - - - - - 1005,2 0,4 0,2
23.11.2017 08:00:00 -7,5 -10,2 - - - - - 1007,3 0,5 0,1
23.11.2017 07:00:00 -8,2 -9,7 - - - - - 1008,3 0,5 0,2
23.11.2017 06:00:00 -10,7 -12,4 - - - - - 1009,1 1,2 0,0
23.11.2017 05:00:00 -10,8 -12,4 - - - - - 1010,7 0,7 0,1
23.11.2017 04:00:00 -10,5 -12,0 - - - - - 1010,0 0,8 0,2
23.11.2017 03:00:00 -9,9 -11,7 - - - - - 1011,0 0,6 0,0
23.11.2017 02:00:00 -9,8 -11,4 - - - - - 1012,5 1,4 0,1
23.11.2017 01:00:00 -9,8 -11,7 - - - - - 1013,7 1,6 0,0
23.11.2017 00:00:00 -9,8 -12,3 - - - - - 1014,6 4,9 0,0
22.11.2017 23:00:00 -10,0 -12,3 - - - - - 1015,0 5 0,0
22.11.2017 22:00:00 -10,3 -12,2 - - - - - 1015,8 1,4 0,0
22.11.2017 21:00:00 -10,3 -12,0 - - - - - 1017,0 2,0 0,0
22.11.2017 20:00:00 -9,9 -12,2 - - 73 40 - 1017,3 6 0,0
22.11.2017 19:00:00 -9,0 -14,0 32 18 62 34 ONO 1017,5 40 0,0
22.11.2017 18:00:00 -9,1 -13,7 16 8 67 36 O 1018,2 25 0,0
22.11.2017 17:00:00 -9,2 -12,6 30 16 67 36 ONO 1018,5 15 0,0
22.11.2017 16:00:00 -9,2 -12,8 35 19 60 32 O 1018,7 20 0,0
22.11.2017 15:00:00 -9,4 -11,6 42 23 57 31 O 1018,8 3,6 0,0
22.11.2017 14:00:00 -8,4 -13,8 23 12 51 28 O 1019,3 50 0,0
22.11.2017 13:00:00 -9,2 -12,8 9 5 35 19 NNW 1019,0 50 0,0
22.11.2017 12:00:00 -7,9 -14,5 9 5 31 17 NNO 1018,8 50 0,0
22.11.2017 11:00:00 -8,4 -13,2 14 8 47 25 OZO 1019,3 50 0,0
22.11.2017 10:00:00 -8,9 -15,7 18 10 63 34 ZW 1019,2 50 0,0
22.11.2017 09:00:00 -8,8 -14,2 40 22 63 34 O 1018,6 11 0,0
22.11.2017 08:00:00 -8,9 -14,3 12 6 46 25 ONO 1019,1 50 0,0
22.11.2017 07:00:00 -8,5 -14,1 18 10 46 25 Z 1018,6 39 0,0
22.11.2017 06:00:00 -8,1 -12,8 13 7 39 21 ZO 1018,8 50 0,0
22.11.2017 05:00:00 -7,9 -13,3 7 4 38 20 ZW 1018,7 50 0,0
22.11.2017 04:00:00 -8,5 -12,5 8 5 29 16 ZZO 1019,1 50 0,0
22.11.2017 03:00:00 -8,1 -12,1 9 5 49 27 N 1019,2 50 0,0
22.11.2017 02:00:00 -7,7 -11,4 13 7 49 27 ONO 1019,2 50 0,0
22.11.2017 01:00:00 -7,0 -11,4 18 10 45 24 O 1019,0 50 0,0
22.11.2017 00:00:00 -7,3 -11,1 18 10 50 27 ONO 1019,3 50 0,0
21.11.2017 23:00:00 -7,2 -11,9 25 13 54 29 ONO 1019,2 50 0,0
21.11.2017 22:00:00 -7,4 -11,4 31 17 54 29 ONO 1019,1 41 0,0
21.11.2017 21:00:00 -7,4 -10,4 35 19 54 29 ONO 1018,9 7 0,0
21.11.2017 20:00:00 -7,0 -10,3 33 18 54 29 ONO 1018,4 9 0,0
21.11.2017 19:00:00 -6,0 -11,3 21 12 50 27 ONO 1018,1 50 0,0
21.11.2017 18:00:00 -6,8 -11,0 26 14 53 29 O 1017,9 32 0,0
21.11.2017 17:00:00 -6,3 -12,0 25 14 53 29 O 1017,6 50 0,0
21.11.2017 16:00:00 -6,9 -11,4 30 16 53 29 O 1017,6 49 0,0
21.11.2017 15:00:00 -7,0 -11,5 37 20 53 29 O 1017,4 29 0,0
21.11.2017 14:00:00 -7,0 -11,5 34 18 51 28 O 1017,1 50 0,0
21.11.2017 13:00:00 -7,4 -11,4 31 17 59 32 O 1017,3 50 0,0
21.11.2017 12:00:00 -6,6 -11,0 31 17 59 32 O 1016,9 24 0,0
21.11.2017 11:00:00 -7,1 -10,3 45 25 58 31 O 1016,5 5 0,0
21.11.2017 10:00:00 -6,8 -10,3 36 20 50 27 O 1016,2 27 0,0
21.11.2017 09:00:00 -7,1 -10,1 35 19 49 26 ONO 1016,0 50 0,0
21.11.2017 08:00:00 -5,8 -9,5 29 16 58 31 NO 1014,5 50 0,0
21.11.2017 07:00:00 -6,8 -8,9 37 20 58 31 ONO 1014,6 31 0,0
21.11.2017 06:00:00 -6,7 -9,3 38 20 58 31 ONO 1014,3 50 0,0
21.11.2017 05:00:00 -6,7 -8,5 39 21 58 31 ONO 1014,1 7 0,0
21.11.2017 04:00:00 -6,7 -8,6 39 21 58 31 ONO 1013,9 3,8 0,0
21.11.2017 03:00:00 -6,9 -8,7 35 19 57 31 ONO 1013,7 4,9 0,0
21.11.2017 02:00:00 -6,9 -9,1 36 20 52 28 ONO 1013,5 11 0,0
21.11.2017 01:00:00 -7,0 -9,4 36 19 51 28 O 1013,4 12 0,0
21.11.2017 00:00:00 -7,2 -9,6 36 20 50 27 O 1013,3 12 0,0
20.11.2017 23:00:00 -7,2 -9,7 36 19 46 25 O 1013,3 7 0,0
20.11.2017 22:00:00 -7,5 -10,2 32 18 42 23 O 1013,1 4,5 0,0
20.11.2017 21:00:00 -7,8 -11,6 24 13 38 21 O 1013,3 50 0,0
20.11.2017 20:00:00 -7,0 -12,7 22 12 43 23 OZO 1013,1 50 0,0
20.11.2017 19:00:00 -6,4 -11,7 29 16 43 23 O 1012,7 5 0,0
20.11.2017 18:00:00 -6,5 -9,4 26 14 49 26 O 1013,0 1,6 0,3
20.11.2017 17:00:00 -6,5 -8,2 27 15 58 32 O 1013,1 1,0 0,3
20.11.2017 16:00:00 -6,5 -8,2 38 21 58 32 O 1013,1 0,6 0,3
20.11.2017 15:00:00 -6,4 -8,4 29 16 50 27 O 1013,4 1,1 0,5
20.11.2017 14:00:00 -7,0 -8,4 15 8 21 12 O 1013,8 1,7 0,4
20.11.2017 13:00:00 -7,0 -8,6 7 4 15 8 O 1013,9 2,6 0,3
20.11.2017 12:00:00 -7,6 -9,5 5 3 16 8 N 1014,3 2,1 0,1
20.11.2017 11:00:00 -8,3 -10,2 5 3 16 8 ZW 1014,5 19 0,1
20.11.2017 10:00:00 -8,5 -10,1 3 2 13 7 Z 1014,8 4,1 0,0
20.11.2017 09:00:00 -9,4 -11,6 6 3 13 7 ZW 1014,7 10 0,0
20.11.2017 08:00:00 -11,9 -14,5 6 3 27 15 ZZW 1014,7 39 0,0
20.11.2017 07:00:00 -10,3 -12,2 3 2 27 15 Z 1014,2 47 0,0
20.11.2017 06:00:00 -8,8 -12,3 19 10 34 18 ONO 1013,7 50 0,0
20.11.2017 05:00:00 -8,4 -11,7 22 12 34 18 ONO 1013,4 50 0,0
20.11.2017 04:00:00 -8,3 -12,4 16 9 31 17 O 1013,3 50 0,0
20.11.2017 03:00:00 -6,3 -11,2 20 11 31 17 O 1012,7 17 0,0
20.11.2017 02:00:00 -7,7 -9,9 8 4 12 7 NO 1012,5 17 0,1
20.11.2017 01:00:00 -8,8 -10,1 5 3 12 7 NNW 1012,5 44 0,0
20.11.2017 00:00:00 -9,9 -10,8 8 4 10 5 NNW 1012,4 50 0,0
19.11.2017 23:00:00 -11,6 -12,8 4 2 22 12 ZZW 1012,5 23 0,0
19.11.2017 22:00:00 -9,7 -12,3 5 3 22 12 ZW 1012,1 26 0,0
19.11.2017 21:00:00 -11,4 -13,7 6 4 17 9 WZW 1012,0 50 0,0
19.11.2017 20:00:00 -11,5 -14,6 8 4 24 13 ZW 1011,5 50 0,0
19.11.2017 19:00:00 -13,6 -17,6 6 3 24 13 Z 1011,6 50 0,0
19.11.2017 18:00:00 -14,0 -17,8 5 3 17 9 ZZW 1011,2 50 0,0
19.11.2017 17:00:00 -12,5 -16,5 9 5 17 9 ZW 1010,7 50 0,0
19.11.2017 16:00:00 -10,9 -15,8 4 2 16 9 WZW 1010,1 50 0,0
19.11.2017 15:00:00 -13,3 -17,6 8 4 17 9 ZZW 1010,3 50 0,0
19.11.2017 14:00:00 -13,8 -17,9 5 3 17 9 ZZW 1010,1 50 0,0
19.11.2017 13:00:00 -13,5 -17,6 5 3 11 6 ZZW 1009,7 50 0,0
19.11.2017 12:00:00 -12,6 -16,3 8 4 13 7 ZZW 1009,2 50 0,0
19.11.2017 11:00:00 -12,1 -16,1 9 5 15 8 ZW 1008,8 50 0,0
19.11.2017 10:00:00 -12,0 -16,0 7 4 20 11 ZW 1008,5 50 0,0
19.11.2017 09:00:00 -11,4 -15,4 6 3 20 11 ZW 1008,0 50 0,0
19.11.2017 08:00:00 -11,3 -15,5 11 6 19 10 ZZW 1007,5 50 0,0
19.11.2017 07:00:00 -10,0 -14,4 11 6 22 12 ZW 1006,9 50 0,0
19.11.2017 06:00:00 -9,7 -13,8 9 5 22 12 ZW 1006,6 50 0,0
19.11.2017 05:00:00 -9,6 -13,7 9 5 18 10 ZW 1006,2 50 0,0
19.11.2017 04:00:00 -12,3 -16,1 8 4 20 11 ZW 1006,2 50 0,0
19.11.2017 03:00:00 -9,8 -13,6 8 4 20 11 ZZW 1005,5 50 0,0
19.11.2017 02:00:00 -11,4 -15,3 9 5 16 9 ZZW 1005,5 50 0,0
19.11.2017 01:00:00 -11,7 -14,9 6 3 27 15 ZW 1005,2 50 0,0
19.11.2017 00:00:00 -11,0 -15,2 9 5 27 15 ZW 1004,8 50 0,0
18.11.2017 23:00:00 -9,7 -14,7 7 4 20 11 Z 1004,3 50 0,0
18.11.2017 22:00:00 -10,1 -14,7 6 4 20 11 Z 1004,1 50 0,0
18.11.2017 21:00:00 -10,8 -14,7 8 4 19 10 ZZW 1003,6 50 0,0
18.11.2017 20:00:00 -11,3 -14,5 7 4 16 9 Z 1003,3 50 0,0
18.11.2017 19:00:00 -9,6 -12,2 5 3 16 9 W 1002,7 50 0,0
18.11.2017 18:00:00 -7,7 -12,0 8 4 15 8 WZW 1001,8 50 0,0
18.11.2017 17:00:00 -8,9 -12,4 6 4 16 9 ZZO 1001,6 50 0,0
18.11.2017 16:00:00 -8,0 -11,2 5 3 16 9 ZZW 1001,0 50 0,0
18.11.2017 15:00:00 -9,4 -11,6 5 3 14 8 Z 1001,1 50 0,0
18.11.2017 14:00:00 -10,9 -13,2 6 3 12 7 ZZW 1000,8 50 0,0
18.11.2017 13:00:00 -9,1 -10,9 6 3 13 7 NW 1000,2 50 0,0
18.11.2017 12:00:00 -10,5 -12,8 5 3 14 7 N 1000,0 50 0,0
18.11.2017 11:00:00 -10,0 -12,2 7 4 14 7 Z 999,6 50 0,0
18.11.2017 10:00:00 -10,3 -11,6 3 2 14 8 WNW 999,1 50 0,0
18.11.2017 09:00:00 -10,8 -12,1 4 2 14 8 NW 998,2 50 0,0
18.11.2017 08:00:00 -8,9 -10,7 3 2 11 6 NW 997,3 50 0,0
18.11.2017 07:00:00 -8,3 -9,6 4 2 11 6 WNW 996,6 50 0,0
18.11.2017 06:00:00 -8,2 -10,6 8 4 17 9 NW 996,2 50 0,0
18.11.2017 05:00:00 -7,8 -9,9 6 3 17 9 N 995,9 50 0,0
18.11.2017 04:00:00 -8,2 -10,3 4 2 14 8 NNW 995,8 50 0,0
18.11.2017 03:00:00 -8,1 -10,3 5 3 35 19 O 995,6 50 0,0
18.11.2017 02:00:00 -6,4 -8,7 11 6 35 19 N 995,0 50 0,0
18.11.2017 01:00:00 -5,3 -8,4 17 9 33 18 O 994,4 50 0,0
18.11.2017 00:00:00 -6,4 -9,0 5 3 13 7 N 994,4 50 0,0
17.11.2017 23:00:00 -9,8 -12,0 4 2 16 9 Z 994,6 50 0,0
17.11.2017 22:00:00 -9,9 -11,9 8 4 20 11 ZZW 994,6 50 0,0
17.11.2017 21:00:00 -8,7 -10,6 6 3 20 11 ONO 994,3 50 0,0
17.11.2017 20:00:00 -6,2 -8,0 8 4 26 14 NNW 993,6 50 0,0
17.11.2017 19:00:00 -6,3 -8,1 9 5 31 17 W 993,4 50 0,0
17.11.2017 18:00:00 -6,2 -7,7 22 12 31 17 ONO 993,4 50 0,0
17.11.2017 17:00:00 -5,7 -7,8 8 5 36 19 NNO 993,6 50 0,0
17.11.2017 16:00:00 -5,8 -8,2 20 11 39 21 ONO 993,6 14 0,0
17.11.2017 15:00:00 -5,8 -8,2 20 11 45 24 O 993,6 29 0,0
17.11.2017 14:00:00 -5,9 -7,9 33 18 45 24 O 993,5 13 0,0
17.11.2017 13:00:00 -6,3 -8,4 23 12 31 17 O 994,0 29 0,0
17.11.2017 12:00:00 -6,5 -8,0 14 8 29 16 NNO 994,6 50 0,1

tt = temperatuur
td = dauwpunt
ff = windsnelheid
fx = windstoten
dd = windrichting
ppp = luchtdruk
vv = zicht
rr = neerslag

Weerstations in de omgeving